This is the latest recevied weather packets stored in our database for station/object HS2XQB-3. If no packets are shown the sender has not sent any weather packets the latest 10 day(s).
| Time | Temp. | Humidity | Pressure | Rain* | Wind** | Luminosity | Snow |
|---|---|---|---|---|---|---|---|
| 1778025135 | 24.44° C | 83% | 1005 hPa | - | - | 0 W/m² | - |
| 1778023313 | 23.89° C | 79% | 1005 hPa | - | - | 0 W/m² | - |
| 1778021490 | 23.89° C | 81% | 1004 hPa | - | - | 0 W/m² | - |
| 1778019667 | 24.44° C | 87% | 1004 hPa | - | - | 0 W/m² | - |
| 1778017846 | 23.89° C | 78% | 1004 hPa | - | - | 0 W/m² | - |
| 1778016023 | 23.89° C | 84% | 1004 hPa | - | - | 0 W/m² | - |
| 1778014201 | 23.89° C | 79% | 1004 hPa | - | - | 0 W/m² | - |
| 1778012379 | 23.89° C | 78% | 1004 hPa | - | - | 0 W/m² | - |
| 1778010557 | 24.44° C | 85% | 1004 hPa | - | - | 0 W/m² | - |
| 1778008735 | 23.33° C | 76% | 1004 hPa | - | - | 0 W/m² | - |
| 1778006913 | 24.44° C | 83% | 1004 hPa | - | - | 0 W/m² | - |
| 1778005091 | 23.89° C | 74% | 1004 hPa | - | - | 0 W/m² | - |
| 1778003269 | 24.44° C | 85% | 1004 hPa | - | - | 0 W/m² | - |
| 1778001447 | 23.33° C | 73% | 1005 hPa | - | - | 0 W/m² | - |
| 1777999624 | 24.44° C | 81% | 1005 hPa | - | - | 0 W/m² | - |
| 1777997802 | 23.89° C | 75% | 1006 hPa | - | - | 0 W/m² | - |
| 1777995980 | 23.33° C | 72% | 1006 hPa | - | - | 0 W/m² | - |
| 1777994158 | 23.89° C | 77% | 1006 hPa | - | - | 0 W/m² | - |
| 1777992336 | 24.44° C | 76% | 1006 hPa | - | - | 0 W/m² | - |
| 1777990513 | 23.89° C | 74% | 1005 hPa | - | - | 0 W/m² | - |
| 1777988691 | 23.89° C | 70% | 1005 hPa | - | - | 0 W/m² | - |
| 1777986869 | 24.44° C | 73% | 1005 hPa | - | - | 0 W/m² | - |
| 1777985047 | 24.44° C | 68% | 1004 hPa | - | - | 0 W/m² | - |
| 1777983225 | 23.33° C | 63% | 1004 hPa | - | - | 0 W/m² | - |
| 1777981402 | 24.44° C | 66% | 1003 hPa | - | - | 0 W/m² | - |
* Rain since midnight (hover to see other rain measurements)
** Current wind speed in m/s (hover to see current wind gust speed)